RYR5FE EBCI-LIBD

Flight info

Callsign RYR5FE
Flight time 1h 58m
Altitude 35000
Route SOPOK Y863 OGLOR DCT EMGOD L607 ABUKA DCT TEDGO L607 UTABA DCT BEMKI DCT ELMEM DCT GIRIS DCT SUMIR DCT BASOG DCT RUPAX DCT AFCAM DCT BEFHE DCT EKMUR
Aircraft B738/M-SDE2E3FGHIRWXY/LB1

Departure

Time 2026-04-27 20:05
Airport Brussels South Charleroi Airport (EBCI)

Arrival

Time 2026-04-27 22:03
Airport Bari Karol Wojtyła International Airport (LIBD)
Time Latitude Longitude Altitude Speed Heading
2026-04-27 19:33 50.46869 4.47099 584 ft 0 kts 335°
2026-04-27 19:47 50.46860 4.47105 584 ft 4 kts 331°
2026-04-27 19:47 50.46839 4.47130 584 ft 4 kts 306°
2026-04-27 19:47 50.46830 4.47164 584 ft 5 kts 257°
2026-04-27 19:48 50.46832 4.47175 585 ft 3 kts 245°
2026-04-27 19:53 50.46824 4.47148 585 ft 4 kts 245°
2026-04-27 19:53 50.46810 4.47100 585 ft 5 kts 245°
2026-04-27 19:53 50.46795 4.47047 584 ft 6 kts 245°
2026-04-27 19:54 50.46776 4.46981 584 ft 7 kts 245°
2026-04-27 19:54 50.46755 4.46911 585 ft 7 kts 245°
2026-04-27 19:54 50.46735 4.46842 586 ft 7 kts 245°
2026-04-27 19:54 50.46710 4.46778 587 ft 7 kts 217°
2026-04-27 19:55 50.46664 4.46784 589 ft 7 kts 155°
2026-04-27 19:55 50.46611 4.46793 591 ft 10 kts 208°
2026-04-27 19:55 50.46566 4.46664 590 ft 16 kts 245°
2026-04-27 19:55 50.46515 4.46491 588 ft 18 kts 245°
2026-04-27 19:56 50.46465 4.46316 589 ft 18 kts 246°
2026-04-27 19:56 50.46414 4.46141 590 ft 17 kts 245°
2026-04-27 19:56 50.46367 4.45977 595 ft 16 kts 246°
2026-04-27 19:56 50.46320 4.45816 596 ft 16 kts 245°
2026-04-27 19:57 50.46276 4.45663 597 ft 15 kts 245°
2026-04-27 19:57 50.46232 4.45515 598 ft 17 kts 245°
2026-04-27 19:57 50.46178 4.45329 598 ft 20 kts 245°
2026-04-27 19:57 50.46122 4.45134 596 ft 19 kts 246°
2026-04-27 19:58 50.46068 4.44946 596 ft 19 kts 245°
2026-04-27 19:58 50.46014 4.44763 595 ft 18 kts 245°
2026-04-27 19:58 50.45961 4.44583 598 ft 18 kts 245°
2026-04-27 19:58 50.45910 4.44431 598 ft 15 kts 235°
2026-04-27 19:59 50.45848 4.44306 598 ft 14 kts 232°
2026-04-27 19:59 50.45790 4.44190 596 ft 7 kts 232°
2026-04-27 19:59 50.45772 4.44153 595 ft 0 kts 232°
2026-04-27 20:02 50.45772 4.44152 595 ft 0 kts 232°
2026-04-27 20:02 50.45758 4.44125 594 ft 9 kts 232°
2026-04-27 20:02 50.45694 4.44001 593 ft 14 kts 222°
2026-04-27 20:03 50.45625 4.44007 592 ft 5 kts 132°
2026-04-27 20:03 50.45625 4.44050 593 ft 1 kts 66°
2026-04-27 20:03 50.45625 4.44051 593 ft 0 kts 66°
2026-04-27 20:04 50.45691 4.44282 594 ft 59 kts 65°
2026-04-27 20:04 50.45965 4.45218 589 ft 129 kts 65°
2026-04-27 20:04 50.46410 4.46777 687 ft 177 kts 65°
2026-04-27 20:04 50.46749 4.48002 1018 ft 193 kts 65°
2026-04-27 20:05 50.47872 4.50178 1875 ft 204 kts 22°
2026-04-27 20:05 50.49177 4.50996 2687 ft 194 kts 25°
2026-04-27 20:05 50.50280 4.52147 3250 ft 199 kts 52°
2026-04-27 20:05 50.51088 4.54048 3447 ft 219 kts 57°
2026-04-27 20:06 50.51972 4.56079 3833 ft 230 kts 55°
2026-04-27 20:06 50.52914 4.58175 4255 ft 241 kts 54°
2026-04-27 20:06 50.53936 4.60404 4598 ft 259 kts 53°
2026-04-27 20:06 50.54997 4.62683 5331 ft 264 kts 52°
2026-04-27 20:07 50.56093 4.65013 6078 ft 268 kts 53°
2026-04-27 20:07 50.57205 4.67363 6875 ft 269 kts 52°
2026-04-27 20:07 50.58340 4.69753 7512 ft 276 kts 52°
2026-04-27 20:07 50.59506 4.72202 8186 ft 281 kts 52°
2026-04-27 20:08 50.60690 4.74689 8855 ft 287 kts 52°
2026-04-27 20:08 50.61900 4.77228 9577 ft 291 kts 52°
2026-04-27 20:08 50.63118 4.79787 10295 ft 294 kts 52°
2026-04-27 20:08 50.64379 4.82435 10609 ft 313 kts 52°
2026-04-27 20:09 50.65665 4.85335 10767 ft 335 kts 62°
2026-04-27 20:09 50.66256 4.88976 10927 ft 356 kts 90°
2026-04-27 20:09 50.65785 4.92838 11346 ft 365 kts 108°
2026-04-27 20:09 50.65006 4.96669 11928 ft 371 kts 109°
2026-04-27 20:10 50.64196 5.00562 12563 ft 375 kts 109°
2026-04-27 20:10 50.63387 5.04490 13207 ft 380 kts 109°
2026-04-27 20:10 50.62578 5.08491 13846 ft 386 kts 108°
2026-04-27 20:10 50.61768 5.12552 14443 ft 391 kts 108°
2026-04-27 20:11 50.60955 5.16661 15053 ft 396 kts 108°
2026-04-27 20:11 50.60132 5.20820 15687 ft 400 kts 108°
2026-04-27 20:11 50.59300 5.25009 16318 ft 404 kts 109°
2026-04-27 20:11 50.58445 5.29252 16928 ft 409 kts 109°
2026-04-27 20:12 50.57529 5.33511 17526 ft 412 kts 115°
2026-04-27 20:12 50.56581 5.36092 17881 ft 411 kts 132°
2026-04-27 20:12 50.53731 5.40007 18735 ft 408 kts 146°
2026-04-27 20:12 50.51505 5.42827 19257 ft 413 kts 144°
2026-04-27 20:13 50.49289 5.45726 19784 ft 417 kts 144°
2026-04-27 20:13 50.47064 5.48676 20313 ft 420 kts 143°
2026-04-27 20:13 50.44826 5.51653 20840 ft 424 kts 143°
2026-04-27 20:13 50.43330 5.53641 21175 ft 426 kts 144°
2026-04-27 20:14 50.41062 5.56650 21694 ft 429 kts 144°
2026-04-27 20:14 50.38772 5.59679 22219 ft 432 kts 144°
2026-04-27 20:14 50.36467 5.62722 22706 ft 435 kts 144°
2026-04-27 20:14 50.34141 5.65787 23176 ft 439 kts 144°
2026-04-27 20:15 50.31793 5.68877 23650 ft 443 kts 144°
2026-04-27 20:15 50.29428 5.71982 24064 ft 446 kts 144°
2026-04-27 20:15 50.27156 5.75339 24444 ft 453 kts 134°
2026-04-27 20:15 50.25339 5.79405 24866 ft 461 kts 122°
2026-04-27 20:16 50.24037 5.84017 25253 ft 469 kts 110°
2026-04-27 20:16 50.23188 5.88962 25628 ft 473 kts 106°
2026-04-27 20:16 50.22408 5.93978 25963 ft 477 kts 106°
2026-04-27 20:16 50.21616 5.99018 26292 ft 480 kts 107°
2026-04-27 20:17 50.20788 6.04083 26604 ft 483 kts 107°
2026-04-27 20:17 50.19927 6.09169 26954 ft 485 kts 108°
2026-04-27 20:17 50.19058 6.14267 27306 ft 488 kts 106°
2026-04-27 20:17 50.18480 6.19514 27614 ft 494 kts 97°
2026-04-27 20:18 50.18412 6.24901 27914 ft 499 kts 87°
2026-04-27 20:18 50.18760 6.30300 28245 ft 502 kts 84°
2026-04-27 20:18 50.19164 6.35727 28534 ft 505 kts 84°
2026-04-27 20:18 50.19558 6.41185 28808 ft 508 kts 85°
2026-04-27 20:19 50.19926 6.46670 29090 ft 510 kts 85°
2026-04-27 20:19 50.20273 6.52202 29378 ft 512 kts 85°
2026-04-27 20:19 50.20609 6.57755 29693 ft 514 kts 85°
2026-04-27 20:19 50.20939 6.63308 30089 ft 513 kts 86°
2026-04-27 20:20 50.21074 6.68862 30478 ft 511 kts 92°
2026-04-27 20:20 50.20989 6.74394 30869 ft 509 kts 94°
2026-04-27 20:20 50.20834 6.79912 31193 ft 509 kts 94°
2026-04-27 20:20 50.20667 6.85441 31489 ft 510 kts 94°
2026-04-27 20:21 50.20516 6.90968 31810 ft 509 kts 94°
2026-04-27 20:21 50.20385 6.96492 32124 ft 509 kts 93°
2026-04-27 20:21 50.20268 7.02014 32437 ft 509 kts 93°
2026-04-27 20:21 50.20158 7.07461 32755 ft 509 kts 93°
2026-04-27 20:22 50.20044 7.12985 33057 ft 509 kts 93°
2026-04-27 20:22 50.19927 7.18498 33411 ft 508 kts 93°
2026-04-27 20:22 50.19806 7.24013 33671 ft 509 kts 93°
2026-04-27 20:22 50.19664 7.29539 33946 ft 509 kts 96°
2026-04-27 20:23 50.19195 7.34994 34228 ft 506 kts 105°
2026-04-27 20:23 50.18218 7.40235 34467 ft 502 kts 111°
2026-04-27 20:23 50.17086 7.45375 34763 ft 500 kts 112°
2026-04-27 20:23 50.15943 7.50491 35044 ft 499 kts 111°
2026-04-27 20:24 50.14812 7.55611 35177 ft 501 kts 111°
2026-04-27 20:24 50.13691 7.60774 35163 ft 504 kts 111°
2026-04-27 20:24 50.11483 7.71113 35162 ft 501 kts 110°
2026-04-27 20:25 50.09295 7.81355 35162 ft 497 kts 111°
2026-04-27 20:25 50.06893 7.91425 35162 ft 494 kts 120°
2026-04-27 20:26 50.03196 8.00317 35163 ft 487 kts 132°
2026-04-27 20:26 50.00942 8.04209 35161 ft 480 kts 143°
2026-04-27 20:26 49.98366 8.07449 35173 ft 476 kts 148°
2026-04-27 20:27 49.93036 8.13596 35157 ft 478 kts 149°
2026-04-27 20:27 49.87695 8.19771 35143 ft 480 kts 148°
2026-04-27 20:28 49.82357 8.26032 35150 ft 482 kts 148°
2026-04-27 20:28 49.77913 8.31267 35151 ft 484 kts 148°
2026-04-27 20:29 49.71641 8.38636 35150 ft 485 kts 148°
2026-04-27 20:29 49.66256 8.44937 35153 ft 486 kts 148°
2026-04-27 20:30 49.60866 8.51225 35151 ft 486 kts 148°
2026-04-27 20:30 49.55512 8.57454 35158 ft 485 kts 148°
2026-04-27 20:31 49.50124 8.63705 35131 ft 485 kts 148°
2026-04-27 20:31 49.44566 8.69455 35121 ft 475 kts 161°
2026-04-27 20:32 49.38560 8.73596 35116 ft 473 kts 163°
2026-04-27 20:32 49.32545 8.77645 35123 ft 471 kts 162°
2026-04-27 20:33 49.26564 8.81737 35128 ft 471 kts 162°
2026-04-27 20:33 49.20581 8.85863 35131 ft 472 kts 162°
2026-04-27 20:34 49.14591 8.89994 35128 ft 472 kts 162°
2026-04-27 20:34 49.08596 8.94115 35120 ft 474 kts 162°
2026-04-27 20:35 49.02579 8.98238 35137 ft 475 kts 162°
2026-04-27 20:35 48.96543 9.02363 35134 ft 476 kts 162°
2026-04-27 20:36 48.90492 9.06488 35117 ft 477 kts 162°
2026-04-27 20:36 48.84433 9.10606 35127 ft 478 kts 162°
2026-04-27 20:37 48.78356 9.14726 35131 ft 479 kts 162°
2026-04-27 20:37 48.72273 9.18840 35128 ft 479 kts 162°
2026-04-27 20:38 48.66178 9.22953 35125 ft 480 kts 162°
2026-04-27 20:38 48.60066 9.26981 35128 ft 478 kts 164°
2026-04-27 20:39 48.53902 9.30463 35135 ft 476 kts 166°
2026-04-27 20:39 48.47632 9.33878 35126 ft 476 kts 166°
2026-04-27 20:40 48.41415 9.37328 35128 ft 476 kts 166°
2026-04-27 20:40 48.35215 9.40793 35133 ft 475 kts 166°
2026-04-27 20:41 48.29023 9.44243 35131 ft 474 kts 166°
2026-04-27 20:41 48.23128 9.48874 35123 ft 486 kts 147°
2026-04-27 20:42 48.17905 9.55330 35129 ft 487 kts 144°
2026-04-27 20:42 48.12759 9.61808 35127 ft 486 kts 144°
2026-04-27 20:43 48.07546 9.68257 35130 ft 486 kts 145°
2026-04-27 20:43 48.02317 9.74649 35112 ft 485 kts 145°
2026-04-27 20:44 47.97086 9.81013 35119 ft 485 kts 144°
2026-04-27 20:44 47.91856 9.87364 35124 ft 485 kts 144°
2026-04-27 20:45 47.86624 9.93702 35129 ft 485 kts 144°
2026-04-27 20:45 47.81386 10.00032 35125 ft 485 kts 144°
2026-04-27 20:46 47.76147 10.06347 35118 ft 485 kts 144°
2026-04-27 20:46 47.70905 10.12650 35117 ft 485 kts 144°
2026-04-27 20:47 47.65657 10.18941 35129 ft 485 kts 144°
2026-04-27 20:47 47.60407 10.25222 35126 ft 485 kts 144°
2026-04-27 20:48 47.56036 10.30430 35135 ft 485 kts 145°
2026-04-27 20:48 47.49554 10.36988 35121 ft 482 kts 151°
2026-04-27 20:49 47.43911 10.42309 35126 ft 481 kts 151°
2026-04-27 20:49 47.38298 10.47707 35124 ft 481 kts 150°
2026-04-27 20:50 47.32704 10.53134 35122 ft 481 kts 150°
2026-04-27 20:50 47.27011 10.58278 35112 ft 477 kts 159°
2026-04-27 20:51 47.20945 10.61997 35121 ft 476 kts 162°
2026-04-27 20:51 47.14804 10.65606 35128 ft 476 kts 162°
2026-04-27 20:52 47.08673 10.69296 35117 ft 476 kts 161°
2026-04-27 20:52 47.02555 10.73027 35097 ft 478 kts 161°
2026-04-27 20:53 46.99468 10.74909 35222 ft 480 kts 161°
2026-04-27 20:53 46.96392 10.76782 35570 ft 477 kts 161°
2026-04-27 20:53 46.93330 10.78644 35862 ft 476 kts 161°
2026-04-27 20:53 46.90270 10.80500 36072 ft 477 kts 161°
2026-04-27 20:54 46.84142 10.84209 36540 ft 476 kts 161°
2026-04-27 20:54 46.81081 10.86057 36736 ft 476 kts 161°
2026-04-27 20:54 46.78028 10.87904 36930 ft 475 kts 160°
2026-04-27 20:55 46.75083 10.90106 37135 ft 479 kts 151°
2026-04-27 20:55 46.72275 10.92747 37407 ft 478 kts 149°
2026-04-27 20:55 46.69503 10.95426 37614 ft 479 kts 149°
2026-04-27 20:55 46.66722 10.98110 37801 ft 480 kts 149°
2026-04-27 20:56 46.63932 11.00774 37861 ft 481 kts 149°
2026-04-27 20:56 46.61126 11.03422 38106 ft 480 kts 150°
2026-04-27 20:56 46.58315 11.06052 38041 ft 482 kts 150°
2026-04-27 20:57 46.52672 11.11294 38055 ft 481 kts 150°
2026-04-27 20:57 46.47079 11.16473 38075 ft 479 kts 150°
2026-04-27 20:58 46.41429 11.21697 38058 ft 478 kts 150°
2026-04-27 20:58 46.38633 11.24279 38205 ft 476 kts 150°
2026-04-27 20:58 46.35843 11.26853 38088 ft 475 kts 150°
2026-04-27 20:59 46.30262 11.31992 38098 ft 476 kts 150°
2026-04-27 20:59 46.25627 11.36257 38102 ft 474 kts 149°
2026-04-27 21:00 46.19328 11.42601 38091 ft 475 kts 146°
2026-04-27 21:00 46.13966 11.48211 38106 ft 476 kts 146°
2026-04-27 21:01 46.09462 11.52880 38115 ft 477 kts 146°
2026-04-27 21:01 46.04056 11.58424 38063 ft 477 kts 147°
2026-04-27 21:02 45.98624 11.63953 38102 ft 479 kts 147°
2026-04-27 21:02 45.93218 11.69458 38102 ft 480 kts 147°
2026-04-27 21:03 45.87744 11.75020 38070 ft 484 kts 147°
2026-04-27 21:03 45.82239 11.80597 38089 ft 485 kts 147°
2026-04-27 21:04 45.76721 11.86175 38091 ft 485 kts 147°
2026-04-27 21:04 45.71217 11.91723 38072 ft 483 kts 146°
2026-04-27 21:05 45.65735 11.97237 38067 ft 481 kts 146°
2026-04-27 21:05 45.60273 12.02715 38069 ft 478 kts 147°
2026-04-27 21:06 45.54838 12.08154 38070 ft 476 kts 147°
2026-04-27 21:06 45.49420 12.13562 38066 ft 474 kts 146°
2026-04-27 21:07 45.44023 12.18937 38073 ft 473 kts 146°
2026-04-27 21:07 45.38625 12.24301 38076 ft 473 kts 146°
2026-04-27 21:08 45.33231 12.29647 38077 ft 473 kts 146°
2026-04-27 21:08 45.27824 12.34994 38068 ft 474 kts 146°
2026-04-27 21:09 45.22414 12.40333 38072 ft 474 kts 146°
2026-04-27 21:09 45.17025 12.45639 38074 ft 475 kts 146°
2026-04-27 21:10 45.11579 12.51087 38068 ft 476 kts 144°
2026-04-27 21:10 45.06391 12.56827 38071 ft 477 kts 142°
2026-04-27 21:11 45.01212 12.62702 38073 ft 477 kts 142°
2026-04-27 21:11 44.96013 12.68544 38073 ft 477 kts 142°
2026-04-27 21:12 44.90797 12.74342 38077 ft 477 kts 142°
2026-04-27 21:12 44.85575 12.80116 38059 ft 477 kts 142°
2026-04-27 21:13 44.80361 12.85866 38079 ft 475 kts 142°
2026-04-27 21:13 44.75160 12.91590 38079 ft 474 kts 142°
2026-04-27 21:14 44.69971 12.97288 38088 ft 472 kts 142°
2026-04-27 21:14 44.64796 13.02959 38081 ft 471 kts 142°
2026-04-27 21:15 44.59632 13.08605 38080 ft 470 kts 142°
2026-04-27 21:15 44.54478 13.14225 38080 ft 469 kts 142°
2026-04-27 21:16 44.49336 13.19820 38081 ft 468 kts 142°
2026-04-27 21:16 44.44195 13.25402 38091 ft 467 kts 142°
2026-04-27 21:17 44.39059 13.30965 38076 ft 467 kts 142°
2026-04-27 21:17 44.33921 13.36518 38080 ft 467 kts 142°
2026-04-27 21:18 44.28780 13.42061 38080 ft 467 kts 142°
2026-04-27 21:18 44.23662 13.47566 38079 ft 468 kts 143°
2026-04-27 21:19 44.18503 13.53105 38081 ft 468 kts 142°
2026-04-27 21:19 44.13338 13.58635 38084 ft 469 kts 142°
2026-04-27 21:20 44.05566 13.66936 38084 ft 470 kts 142°
2026-04-27 21:20 44.00371 13.72468 38085 ft 471 kts 142°
2026-04-27 21:21 43.95170 13.77994 38085 ft 471 kts 142°
2026-04-27 21:21 43.89966 13.83510 38087 ft 471 kts 142°
2026-04-27 21:22 43.84747 13.89030 38089 ft 472 kts 143°
2026-04-27 21:22 43.79529 13.94537 38083 ft 472 kts 143°
2026-04-27 21:23 43.74309 14.00033 38077 ft 471 kts 143°
2026-04-27 21:23 43.69126 14.05478 38088 ft 471 kts 143°
2026-04-27 21:24 43.63873 14.10985 38088 ft 471 kts 143°
2026-04-27 21:24 43.58691 14.16404 38087 ft 471 kts 143°
2026-04-27 21:25 43.53471 14.21851 38104 ft 470 kts 143°
2026-04-27 21:25 43.48251 14.27287 38089 ft 470 kts 143°
2026-04-27 21:26 43.43028 14.32713 38089 ft 470 kts 143°
2026-04-27 21:26 43.37804 14.38129 38090 ft 470 kts 143°
2026-04-27 21:27 43.32579 14.43533 38089 ft 470 kts 143°
2026-04-27 21:27 43.27348 14.48932 38090 ft 470 kts 143°
2026-04-27 21:28 43.22110 14.54325 38089 ft 470 kts 143°
2026-04-27 21:28 43.16872 14.59708 38090 ft 470 kts 143°
2026-04-27 21:29 43.12371 14.64323 38090 ft 471 kts 143°
2026-04-27 21:29 43.07127 14.69690 38082 ft 471 kts 143°
2026-04-27 21:30 43.01882 14.75045 38094 ft 471 kts 143°
2026-04-27 21:30 42.96632 14.80394 38092 ft 471 kts 143°
2026-04-27 21:31 42.91386 14.85728 38091 ft 471 kts 143°
2026-04-27 21:31 42.86130 14.91060 38090 ft 471 kts 143°
2026-04-27 21:32 42.80878 14.96377 38091 ft 470 kts 143°
2026-04-27 21:32 42.75625 15.01683 38093 ft 470 kts 143°
2026-04-27 21:33 42.70364 15.06985 38089 ft 470 kts 143°
2026-04-27 21:33 42.65091 15.12289 37697 ft 476 kts 143°
2026-04-27 21:34 42.62466 15.14924 37214 ft 474 kts 143°
2026-04-27 21:34 42.59814 15.17584 36651 ft 472 kts 143°
2026-04-27 21:34 42.57178 15.20226 36085 ft 471 kts 143°
2026-04-27 21:34 42.54541 15.22865 35460 ft 471 kts 143°
2026-04-27 21:35 42.51899 15.25506 34827 ft 472 kts 143°
2026-04-27 21:35 42.49252 15.28151 34194 ft 473 kts 143°
2026-04-27 21:35 42.46602 15.30794 33467 ft 474 kts 143°
2026-04-27 21:35 42.43947 15.33440 32737 ft 474 kts 143°
2026-04-27 21:36 42.41287 15.36089 32040 ft 474 kts 143°
2026-04-27 21:36 42.38630 15.38731 31309 ft 475 kts 143°
2026-04-27 21:36 42.35974 15.41371 30749 ft 471 kts 143°
2026-04-27 21:36 42.33346 15.43981 30255 ft 466 kts 143°
2026-04-27 21:37 42.30742 15.46561 29677 ft 462 kts 143°
2026-04-27 21:37 42.28119 15.49002 29303 ft 454 kts 147°
2026-04-27 21:37 42.25479 15.51261 28894 ft 446 kts 148°
2026-04-27 21:37 42.22847 15.53439 28418 ft 441 kts 148°
2026-04-27 21:38 42.20240 15.55582 27899 ft 437 kts 148°
2026-04-27 21:38 42.17657 15.57717 27401 ft 434 kts 148°
2026-04-27 21:38 42.15098 15.59848 26899 ft 431 kts 148°
2026-04-27 21:38 42.12563 15.61969 26416 ft 427 kts 148°
2026-04-27 21:39 42.10049 15.64079 25933 ft 425 kts 148°
2026-04-27 21:39 42.07549 15.66178 25463 ft 422 kts 148°
2026-04-27 21:39 42.05063 15.68263 24977 ft 420 kts 148°
2026-04-27 21:39 42.02588 15.70337 24488 ft 418 kts 148°
2026-04-27 21:40 42.00120 15.72403 24000 ft 417 kts 148°
2026-04-27 21:40 41.97658 15.74461 23466 ft 416 kts 148°
2026-04-27 21:40 41.95203 15.76512 22922 ft 414 kts 148°
2026-04-27 21:40 41.92880 15.78776 22410 ft 411 kts 139°
2026-04-27 21:41 41.90888 15.81512 21859 ft 409 kts 131°
2026-04-27 21:41 41.89012 15.84366 21369 ft 407 kts 131°
2026-04-27 21:41 41.87151 15.87214 20883 ft 404 kts 131°
2026-04-27 21:41 41.85299 15.90039 20407 ft 402 kts 131°
2026-04-27 21:42 41.83474 15.92804 19937 ft 400 kts 131°
2026-04-27 21:42 41.81628 15.95584 19439 ft 398 kts 131°
2026-04-27 21:42 41.79790 15.98341 18975 ft 396 kts 131°
2026-04-27 21:42 41.77953 16.01088 18498 ft 395 kts 131°
2026-04-27 21:43 41.76121 16.03821 17968 ft 393 kts 131°
2026-04-27 21:43 41.74297 16.06541 17472 ft 391 kts 131°
2026-04-27 21:43 41.72490 16.09231 16995 ft 387 kts 131°
2026-04-27 21:43 41.70697 16.11900 16530 ft 384 kts 131°
2026-04-27 21:44 41.68920 16.14542 16081 ft 380 kts 131°
2026-04-27 21:44 41.67159 16.17158 15634 ft 377 kts 131°
2026-04-27 21:44 41.65413 16.19750 15198 ft 374 kts 131°
2026-04-27 21:44 41.63681 16.22317 14751 ft 370 kts 132°
2026-04-27 21:45 41.61963 16.24864 14315 ft 367 kts 132°
2026-04-27 21:45 41.60256 16.27391 13880 ft 365 kts 132°
2026-04-27 21:45 41.58564 16.29894 13393 ft 362 kts 132°
2026-04-27 21:45 41.56918 16.32329 12943 ft 359 kts 131°
2026-04-27 21:46 41.55251 16.34791 12505 ft 355 kts 132°
2026-04-27 21:46 41.53601 16.37225 12072 ft 352 kts 132°
2026-04-27 21:46 41.51945 16.39609 11644 ft 349 kts 135°
2026-04-27 21:46 41.50183 16.41806 11244 ft 346 kts 138°
2026-04-27 21:47 41.48390 16.43924 10872 ft 342 kts 138°
2026-04-27 21:47 41.46643 16.45991 10747 ft 330 kts 138°
2026-04-27 21:47 41.44957 16.48006 10596 ft 321 kts 137°
2026-04-27 21:47 41.43324 16.49973 10460 ft 312 kts 137°
2026-04-27 21:48 41.41731 16.51865 10325 ft 303 kts 141°
2026-04-27 21:48 41.39910 16.53178 10193 ft 295 kts 159°
2026-04-27 21:48 41.38011 16.54093 10064 ft 287 kts 160°
2026-04-27 21:48 41.36768 16.54697 9851 ft 287 kts 159°
2026-04-27 21:49 41.34900 16.55620 9566 ft 285 kts 159°
2026-04-27 21:49 41.33049 16.56550 9283 ft 284 kts 159°
2026-04-27 21:49 41.31210 16.57481 9001 ft 282 kts 159°
2026-04-27 21:49 41.29383 16.58407 8720 ft 280 kts 159°
2026-04-27 21:50 41.27562 16.59326 8436 ft 279 kts 159°
2026-04-27 21:50 41.25751 16.60236 8161 ft 278 kts 159°
2026-04-27 21:50 41.23944 16.61091 7969 ft 273 kts 166°
2026-04-27 21:50 41.22093 16.61061 7837 ft 266 kts 197°
2026-04-27 21:51 41.20501 16.59890 7620 ft 262 kts 223°
2026-04-27 21:51 41.19398 16.57999 7376 ft 260 kts 245°
2026-04-27 21:51 41.18721 16.55790 7142 ft 257 kts 251°
2026-04-27 21:51 41.18106 16.53563 6885 ft 257 kts 251°
2026-04-27 21:52 41.17491 16.51339 6629 ft 257 kts 251°
2026-04-27 21:52 41.16870 16.49127 6455 ft 253 kts 251°
2026-04-27 21:52 41.16259 16.46979 6323 ft 247 kts 251°
2026-04-27 21:52 41.15658 16.44875 6221 ft 240 kts 251°
2026-04-27 21:53 41.15072 16.42833 6109 ft 233 kts 251°
2026-04-27 21:53 41.14504 16.40844 6027 ft 228 kts 251°
2026-04-27 21:53 41.13945 16.38879 5959 ft 228 kts 250°
2026-04-27 21:53 41.13382 16.36908 5894 ft 229 kts 250°
2026-04-27 21:54 41.12815 16.34925 5819 ft 231 kts 251°
2026-04-27 21:54 41.12243 16.32924 5743 ft 233 kts 250°
2026-04-27 21:54 41.11666 16.30910 5654 ft 235 kts 250°
2026-04-27 21:54 41.11091 16.28912 5592 ft 234 kts 250°
2026-04-27 21:55 41.10390 16.26950 5388 ft 235 kts 230°
2026-04-27 21:55 41.09016 16.25856 5138 ft 235 kts 189°
2026-04-27 21:55 41.07406 16.26037 4910 ft 234 kts 159°
2026-04-27 21:55 41.06056 16.27148 4664 ft 232 kts 133°
2026-04-27 21:56 41.05164 16.28942 4423 ft 230 kts 114°
2026-04-27 21:56 41.03833 16.32769 4069 ft 230 kts 114°
2026-04-27 21:56 41.03166 16.34673 4027 ft 227 kts 114°
2026-04-27 21:57 41.02733 16.36638 4008 ft 219 kts 84°
2026-04-27 21:57 41.03205 16.38451 4048 ft 208 kts 60°
2026-04-27 21:57 41.03803 16.40185 4029 ft 205 kts 68°
2026-04-27 21:57 41.04306 16.41978 4017 ft 205 kts 68°
2026-04-27 21:58 41.04786 16.43715 4016 ft 203 kts 68°
2026-04-27 21:58 41.05273 16.45470 4016 ft 203 kts 68°
2026-04-27 21:58 41.05761 16.47222 3973 ft 205 kts 69°
2026-04-27 21:58 41.06267 16.49031 3777 ft 212 kts 68°
2026-04-27 21:59 41.06776 16.50854 3572 ft 210 kts 68°
2026-04-27 21:59 41.07275 16.52642 3463 ft 201 kts 68°
2026-04-27 21:59 41.07763 16.54386 3260 ft 204 kts 69°
2026-04-27 21:59 41.08260 16.56162 3013 ft 208 kts 69°
2026-04-27 22:00 41.08764 16.57961 2726 ft 208 kts 69°
2026-04-27 22:00 41.09266 16.59752 2445 ft 207 kts 69°
2026-04-27 22:00 41.09765 16.61532 2160 ft 205 kts 69°
2026-04-27 22:00 41.10258 16.63290 1896 ft 202 kts 69°
2026-04-27 22:01 41.10748 16.65037 1618 ft 202 kts 69°
2026-04-27 22:01 41.11236 16.66773 1357 ft 200 kts 70°
2026-04-27 22:01 41.11711 16.68462 1096 ft 191 kts 70°
2026-04-27 22:01 41.12160 16.70063 906 ft 176 kts 70°
2026-04-27 22:02 41.12575 16.71533 630 ft 163 kts 70°
2026-04-27 22:02 41.12958 16.72885 460 ft 154 kts 70°
2026-04-27 22:02 41.13333 16.74227 273 ft 155 kts 70°
2026-04-27 22:02 41.13708 16.75551 151 ft 145 kts 70°
2026-04-27 22:03 41.13988 16.76545 147 ft 85 kts 70°
2026-04-27 22:03 41.14113 16.76986 149 ft 32 kts 69°
2026-04-27 22:03 41.14184 16.77239 148 ft 23 kts 69°
2026-04-27 22:03 41.14191 16.77404 148 ft 17 kts 137°
2026-04-27 22:04 41.14081 16.77392 156 ft 16 kts 201°
2026-04-27 22:04 41.14012 16.77285 157 ft 16 kts 249°
2026-04-27 22:04 41.13974 16.77151 157 ft 15 kts 249°
2026-04-27 22:04 41.13938 16.77024 157 ft 14 kts 249°
2026-04-27 22:05 41.13903 16.76902 157 ft 14 kts 249°
2026-04-27 22:05 41.13870 16.76786 157 ft 9 kts 249°
2026-04-27 22:05 41.13816 16.76767 157 ft 9 kts 165°
2026-04-27 22:05 41.13766 16.76733 157 ft 9 kts 243°
2026-04-27 22:06 41.13743 16.76659 157 ft 9 kts 249°
2026-04-27 22:06 41.13721 16.76586 157 ft 8 kts 247°
2026-04-27 22:06 41.13676 16.76532 157 ft 10 kts 208°
2026-04-27 22:06 41.13626 16.76426 158 ft 15 kts 250°
2026-04-27 22:07 41.13588 16.76323 158 ft 10 kts 204°
2026-04-27 22:07 41.13536 16.76340 158 ft 2 kts 159°
2026-04-27 22:07 41.13527 16.76344 158 ft 1 kts 159°
2026-04-27 22:07 41.13524 16.76346 158 ft 0 kts 159°